Regional Weather Roundup
Issued by NWS

Home | Current Version | Previous Version | Text Only | Print | Product List | Glossary Off
Versions: 1 2 3 4 5 6 7 8 9 10 11 12 13 14 15 16 17 18 19 20 21 22 23 24 25 26 27 28 29 30 31 32 33 34 35 36 37 38 39 40 41 42 43 44 45 46 47 48 49 50

000
ASUS43 KDTX 041101
RWRMI
MICHIGAN HOURLY REGIONAL WEATHER ROUNDUP
NATIONAL WEATHER SERVICE DETROIT/PONTIAC MI
600 AM EST SUN DEC 04 2016

NOTE: "FAIR" INDICATES FEW OR NO CLOUDS BELOW 12,000 FEET WITH NO
SIGNIFICANT WEATHER AND/OR OBSTRUCTION TO VISIBILITY.

MIZ047>049-052>055-059>063-066>070-074>076-081>083-041200-
SOUTHEAST LOWER MICHIGAN

CITY           SKY/WX    TMP DP  RH WIND       PRES   REMARKS
ADRIAN         CLOUDY    32  28  85 S3        30.23F
ALMA           CLOUDY    33  31  92 CALM      30.22F
ANN ARBOR      CLOUDY    32  28  85 CALM      30.22F
BAD AXE        CLOUDY    33  31  90 SW5       30.24S WCI  29
CARO           CLOUDY    32  31  96 CALM      30.23S
DETROIT CITY   CLOUDY    36  28  73 W3        30.24F
DETROIT        CLOUDY    35  28  75 S3        30.24F
FLINT          CLOUDY    34  28  79 CALM      30.24F
GROSSE ILE     CLOUDY    36  27  68 SW3       30.23F
HILLSDALE      MOCLDY    30  27  86 CALM      30.19F
HOWELL         CLOUDY    33  29  85 CALM      30.22F

CITY           SKY/WX    TMP DP  RH WIND       PRES   REMARKS
JACKSON        CLOUDY    32  25  75 CALM      30.21F
LAMBERTVILLE   CLOUDY    35  28  75 CALM      30.23F
LANSING        CLOUDY    34  26  72 CALM      30.22F
LAPEER         NOT AVBL
MASON          CLOUDY    33  29  88 CALM      30.22F
MONROE         CLOUDY    35  29  81 S10       30.23F WCI  27
MT. CLEMENS    CLOUDY    36  29  76 SW3       30.22F
PONTIAC        CLOUDY    33  28  81 W3        30.22F
PORT HOPE        N/A     35  33  92 SW6       30.22R WCI  30
PORT HURON     CLOUDY    34  32  93 N3        30.24S
TRI CITIES     CLOUDY    34  31  88 CALM      30.24F
MIDLAND        CLOUDY    34  28  81 CALM      30.22F
TROY           CLOUDY    36  28  71 CALM      30.25F
SAGINAW HB     CLOUDY    34  30  86 CALM      30.24F
$$
MIZ043>046-050>051-056>058-064>065-071>073-077>080-041200-
SOUTHWEST LOWER MICHIGAN

CITY           SKY/WX    TMP DP  RH WIND       PRES   REMARKS
BATTLE CREEK   PTCLDY    32  28  85 SE3       30.21F
BENTON HARBOR  CLOUDY    34  26  72 SE3       30.20F
BIG RAPIDS     CLOUDY    33  28  80 SE3       30.19F
COLDWATER      CLOUDY    30  28  90 CALM      30.21F
FREMONT        CLOUDY    33  27  80 SE5       30.19F WCI  28
HOLLAND        CLOUDY    34  27  75 S8        30.20F WCI  27
GRAND RAPIDS   CLOUDY    33  27  78 SE6       30.21F WCI  28
IONIA          CLOUDY    33  28  85 SE3       30.21F
KALAMAZOO      MOCLDY    32  26  78 SE3       30.21F HAZE
LUDINGTON      CLOUDY    33  29  85 SE5       30.18F WCI  28
MARSHALL       CLOUDY    31  29  93 CALM      30.21F
MOUNT PLEASANT CLOUDY    33  28  83 CALM      30.21F
MUSKEGON       CLOUDY    35  28  75 SE9       30.20F WCI  28
SOUTH HAVEN    CLOUDY    35  28  75 SE3       30.20F
$$
MIZ016>042-041200-
NORTHERN LOWER MICHIGAN

CITY           SKY/WX    TMP DP  RH WIND       PRES   REMARKS
ALPENA         CLOUDY    34  31  88 S5        30.22F WCI  30
BEAVER ISLAND  DRIZZLE   36  33  88 SW7       30.18F WCI  30
BELLAIRE       CLOUDY    33  32  96 CALM      30.21F
CADILLAC       CLOUDY    31  26  83 CALM      30.17F
CHARLEVOIX     CLOUDY    34  34 100 SE3       30.22F
FRANKFORT      CLOUDY    33  30  88 SE5       30.19F WCI  28
GAYLORD        CLOUDY    32  29  88 S5        30.17F WCI  27
GRAYLING       CLOUDY    32  31  98 CALM      30.20F
HARBOR SPRINGS CLOUDY    33  32  95 S5        30.19F WCI  29
HOUGHTON LAKE  CLOUDY    31  28  89 S3        30.21F
MANISTEE       CLOUDY    32  28  85 SE5       30.20S WCI  27
OSCODA         CLOUDY    34  32  92 MISG      30.21F
PELLSTON       CLOUDY    34  32  92 S3        30.20F
ROGERS CITY    CLOUDY    34  31  89 CALM      30.22F
TRAVERSE CITY  CLOUDY    34  29  82 VRB3      30.20F
$$
MIZ007>008-015-041200-
EASTERN UPPER MICHIGAN

CITY           SKY/WX    TMP DP  RH WIND       PRES   REMARKS
KINROSS        CLOUDY    30  29  96 E10       30.19F WCI  21
MACKINAC ISLAN CLOUDY    35  32  88 S3        30.19F
NEWBERRY       LGT SNOW  31  30  96 CALM      30.16F
S. S. MARIE    CLOUDY    31  25  78 E8        30.21F WCI  23
MUNISING         N/A     33  31  92 S3        30.15F
$$
MIZ004>006-011>014-085-041200-
CENTRAL UPPER MICHIGAN

CITY           SKY/WX    TMP DP  RH WIND       PRES   REMARKS
MANISTIQUE     CLOUDY    31  29  92 CALM      30.17F
ESCANABA       CLOUDY    30  24  78 CALM      30.17F
MENOMINEE      CLOUDY    31  23  72 SW3       30.18F
SAWYER-GWINN   CLOUDY    29  24  84 S9        30.13F WCI  20
$$
MIZ001>003-009>011-084-041200-
WESTERN UPPER MICHIGAN

CITY           SKY/WX    TMP DP  RH WIND       PRES   REMARKS
IRON MOUNTAIN  CLOUDY    28  20  71 S5        30.12F WCI  23
HOUGHTON       CLOUDY    30  23  75 W3        30.09F
COPPER HARBOR    N/A     34  30  85 CALM      30.11F
IRONWOOD       CLOUDY    26  22  84 VRB3      30.07F
$$

ABBREVIATIONS USED IN REMARKS
   TC - TEMPERATURE IN CELSIUS
  WCI - WIND CHILL INDEX
   HX - HEAT INDEX
  VSB - VISIBILITY





USA.gov is the U.S. government's official web portal to all federal, state and local government web resources and services.